Year,Month,Day,Hour,Minute,Value (Times are PST for temperature in C)
2019,03,17,00,00,5.10
2019,03,17,00,01,5.10
2019,03,17,00,02,5.10
2019,03,17,00,03,5.10
2019,03,17,00,04,5.10
2019,03,17,00,05,5.10
2019,03,17,00,06,5.10
2019,03,17,00,07,5.10
2019,03,17,00,08,5.10
2019,03,17,00,09,5.10
2019,03,17,00,10,5.10
2019,03,17,00,11,5.10
2019,03,17,00,12,5.10
2019,03,17,00,13,5.10
2019,03,17,00,14,5.10
2019,03,17,00,15,5.10
2019,03,17,00,16,5.10
2019,03,17,00,17,5.10
2019,03,17,00,18,5.00
2019,03,17,00,19,4.90
2019,03,17,00,20,4.90
2019,03,17,00,21,4.90
2019,03,17,00,22,4.90
2019,03,17,00,23,4.90
2019,03,17,00,24,4.90
2019,03,17,00,25,4.90
2019,03,17,00,26,4.80
2019,03,17,00,27,4.80
2019,03,17,00,28,4.80
2019,03,17,00,29,4.80
2019,03,17,00,30,4.80
2019,03,17,00,31,4.70
2019,03,17,00,32,4.70
2019,03,17,00,33,4.70
2019,03,17,00,34,4.70
2019,03,17,00,35,4.60
2019,03,17,00,36,4.60
2019,03,17,00,37,4.60
2019,03,17,00,38,4.50
2019,03,17,00,39,4.50
2019,03,17,00,40,4.50
2019,03,17,00,41,4.40
2019,03,17,00,42,4.40
2019,03,17,00,43,4.40
2019,03,17,00,44,4.40
2019,03,17,00,45,4.40
2019,03,17,00,46,4.40
2019,03,17,00,47,4.40
2019,03,17,00,48,4.40
2019,03,17,00,49,4.40
2019,03,17,00,50,4.40
2019,03,17,00,51,4.30
2019,03,17,00,52,4.30
2019,03,17,00,53,4.30
2019,03,17,00,54,4.20
2019,03,17,00,55,4.20
2019,03,17,00,56,4.20
2019,03,17,00,57,4.20
2019,03,17,00,58,4.20
2019,03,17,00,59,4.20
2019,03,17,01,00,4.20
2019,03,17,01,01,4.10
2019,03,17,01,02,4.10
2019,03,17,01,03,4.10
2019,03,17,01,04,4.00
2019,03,17,01,05,4.00
2019,03,17,01,06,4.00
2019,03,17,01,07,4.00
2019,03,17,01,08,4.00
2019,03,17,01,09,3.90
2019,03,17,01,10,3.90
2019,03,17,01,11,3.90
2019,03,17,01,12,3.90
2019,03,17,01,13,3.90
2019,03,17,01,14,3.90
2019,03,17,01,15,3.80
2019,03,17,01,16,3.80
2019,03,17,01,17,3.80
2019,03,17,01,18,3.80
2019,03,17,01,19,3.80
2019,03,17,01,20,3.80
2019,03,17,01,21,3.70
2019,03,17,01,22,3.70
2019,03,17,01,23,3.70
2019,03,17,01,24,3.80
2019,03,17,01,25,3.80
2019,03,17,01,26,3.80
2019,03,17,01,27,3.80
2019,03,17,01,28,3.80
2019,03,17,01,29,3.80
2019,03,17,01,30,3.80
2019,03,17,01,31,3.80
2019,03,17,01,32,3.70
2019,03,17,01,33,3.70
2019,03,17,01,34,3.70
2019,03,17,01,35,3.70
2019,03,17,01,36,3.70
2019,03,17,01,37,3.70
2019,03,17,01,38,3.60
2019,03,17,01,39,3.60
2019,03,17,01,40,3.60
2019,03,17,01,41,3.60
2019,03,17,01,42,3.60
2019,03,17,01,43,3.60
2019,03,17,01,44,3.60
2019,03,17,01,45,3.60
2019,03,17,01,46,3.60
2019,03,17,01,47,3.60
2019,03,17,01,48,3.60
2019,03,17,01,49,3.50
2019,03,17,01,50,3.50
2019,03,17,01,51,3.50
2019,03,17,01,52,3.40
2019,03,17,01,53,3.40
2019,03,17,01,54,3.40
2019,03,17,01,55,3.30
2019,03,17,01,56,3.30
2019,03,17,01,57,3.30
2019,03,17,01,58,3.30
2019,03,17,01,59,3.30
2019,03,17,02,00,3.30
2019,03,17,02,01,3.30
2019,03,17,02,02,3.30
2019,03,17,02,03,3.30
2019,03,17,02,04,3.30
2019,03,17,02,05,3.30
2019,03,17,02,06,3.20
2019,03,17,02,07,3.20
2019,03,17,02,08,3.20
2019,03,17,02,09,3.20
2019,03,17,02,10,3.20
2019,03,17,02,11,3.20
2019,03,17,02,12,3.20
2019,03,17,02,13,3.20
2019,03,17,02,14,3.20
2019,03,17,02,15,3.20
2019,03,17,02,16,3.20
2019,03,17,02,17,3.20
2019,03,17,02,18,3.20
2019,03,17,02,19,3.20
2019,03,17,02,20,3.20
2019,03,17,02,21,3.20
2019,03,17,02,22,3.20
2019,03,17,02,23,3.20
2019,03,17,02,24,3.20
2019,03,17,02,25,3.10
2019,03,17,02,26,3.10
2019,03,17,02,27,3.10
2019,03,17,02,28,3.10
2019,03,17,02,29,3.10
2019,03,17,02,30,3.20
2019,03,17,02,31,3.20
2019,03,17,02,32,3.20
2019,03,17,02,33,3.20
2019,03,17,02,34,3.20
2019,03,17,02,35,3.20
2019,03,17,02,36,3.20
2019,03,17,02,37,3.20
2019,03,17,02,38,3.30
2019,03,17,02,39,3.30
2019,03,17,02,40,3.30
2019,03,17,02,41,3.30
2019,03,17,02,42,3.30
2019,03,17,02,43,3.30
2019,03,17,02,44,3.30
2019,03,17,02,45,3.30
2019,03,17,02,46,3.30
2019,03,17,02,47,3.30
2019,03,17,02,48,3.30
2019,03,17,02,49,3.30
2019,03,17,02,50,3.30
2019,03,17,02,51,3.30
2019,03,17,02,52,3.30
2019,03,17,02,53,3.30
2019,03,17,02,54,3.30
2019,03,17,02,55,3.30
2019,03,17,02,56,3.30
2019,03,17,02,57,3.30
2019,03,17,02,58,3.30
2019,03,17,02,59,3.30
2019,03,17,03,00,3.30
2019,03,17,03,01,3.30
2019,03,17,03,02,3.30
2019,03,17,03,03,3.30
2019,03,17,03,04,3.30
2019,03,17,03,05,3.30
2019,03,17,03,06,3.30
2019,03,17,03,07,3.30
2019,03,17,03,08,3.20
2019,03,17,03,09,3.20
2019,03,17,03,10,3.20
2019,03,17,03,11,3.10
2019,03,17,03,12,3.10
2019,03,17,03,13,3.10
2019,03,17,03,14,3.10
2019,03,17,03,15,3.10
2019,03,17,03,16,3.10
2019,03,17,03,17,3.00
2019,03,17,03,18,2.90
2019,03,17,03,19,2.90
2019,03,17,03,20,2.90
2019,03,17,03,21,2.90
2019,03,17,03,22,2.90
2019,03,17,03,23,2.90
2019,03,17,03,24,2.90
2019,03,17,03,25,2.90
2019,03,17,03,26,2.90
2019,03,17,03,27,2.90
2019,03,17,03,28,2.90
2019,03,17,03,29,2.90
2019,03,17,03,30,2.90
2019,03,17,03,31,2.90
2019,03,17,03,32,2.90
2019,03,17,03,33,2.90
2019,03,17,03,34,2.90
2019,03,17,03,35,2.90
2019,03,17,03,36,2.90
2019,03,17,03,37,2.90
2019,03,17,03,38,2.90
2019,03,17,03,39,2.90
2019,03,17,03,40,2.90
2019,03,17,03,41,2.90
2019,03,17,03,42,2.90
2019,03,17,03,43,2.90
2019,03,17,03,44,2.90
2019,03,17,03,45,2.90
2019,03,17,03,46,2.80
2019,03,17,03,47,2.80
2019,03,17,03,48,2.80
2019,03,17,03,49,2.80
2019,03,17,03,50,2.70
2019,03,17,03,51,2.70
2019,03,17,03,52,2.70
2019,03,17,03,53,2.70
2019,03,17,03,54,2.70
2019,03,17,03,55,2.70
2019,03,17,03,56,2.70
2019,03,17,03,57,2.70
2019,03,17,03,58,2.70
2019,03,17,03,59,2.70
2019,03,17,04,00,2.70
2019,03,17,04,01,2.70
2019,03,17,04,02,2.70
2019,03,17,04,03,2.70
2019,03,17,04,04,2.70
2019,03,17,04,05,2.70
2019,03,17,04,06,2.70
2019,03,17,04,07,2.70
2019,03,17,04,08,2.70
2019,03,17,04,09,2.70
2019,03,17,04,10,2.70
2019,03,17,04,11,2.70
2019,03,17,04,12,2.80
2019,03,17,04,13,2.80
2019,03,17,04,14,2.80
2019,03,17,04,15,2.80
2019,03,17,04,16,2.80
2019,03,17,04,17,2.80
2019,03,17,04,18,2.80
2019,03,17,04,19,2.80
2019,03,17,04,20,2.80
2019,03,17,04,21,2.70
2019,03,17,04,22,2.70
2019,03,17,04,23,2.70
2019,03,17,04,24,2.70
2019,03,17,04,25,2.70
2019,03,17,04,26,2.70
2019,03,17,04,27,2.70
2019,03,17,04,28,2.70
2019,03,17,04,29,2.80
2019,03,17,04,30,2.80
2019,03,17,04,31,2.80
2019,03,17,04,32,2.80
2019,03,17,04,33,2.80
2019,03,17,04,34,2.80
2019,03,17,04,35,2.80
2019,03,17,04,36,2.80
2019,03,17,04,37,2.80
2019,03,17,04,38,2.80
2019,03,17,04,39,2.80
2019,03,17,04,40,2.80
2019,03,17,04,41,2.70
2019,03,17,04,42,2.70
2019,03,17,04,43,2.70
2019,03,17,04,44,2.70
2019,03,17,04,45,2.70
2019,03,17,04,46,2.70
2019,03,17,04,47,2.60
2019,03,17,04,48,2.60
2019,03,17,04,49,2.60
2019,03,17,04,50,2.50
2019,03,17,04,51,2.50
2019,03,17,04,52,2.50
2019,03,17,04,53,2.50
2019,03,17,04,54,2.40
2019,03,17,04,55,2.40
2019,03,17,04,56,2.40
2019,03,17,04,57,2.30
2019,03,17,04,58,2.30
2019,03,17,04,59,2.30
2019,03,17,05,00,2.20
2019,03,17,05,01,2.20
2019,03,17,05,02,2.20
2019,03,17,05,03,2.20
2019,03,17,05,04,2.20
2019,03,17,05,05,2.20
2019,03,17,05,06,2.20
2019,03,17,05,07,2.20
2019,03,17,05,08,2.20
2019,03,17,05,09,2.20
2019,03,17,05,10,2.10
2019,03,17,05,11,2.10
2019,03,17,05,12,2.10
2019,03,17,05,13,2.10
2019,03,17,05,14,2.10
2019,03,17,05,15,2.10
2019,03,17,05,16,2.00
2019,03,17,05,17,2.00
2019,03,17,05,18,2.00
2019,03,17,05,19,1.90
2019,03,17,05,20,1.90
2019,03,17,05,21,1.90
2019,03,17,05,22,1.90
2019,03,17,05,23,1.80
2019,03,17,05,24,1.80
2019,03,17,05,25,1.80
2019,03,17,05,26,1.80
2019,03,17,05,27,1.80
2019,03,17,05,28,1.80
2019,03,17,05,29,1.80
2019,03,17,05,30,1.80
2019,03,17,05,31,1.80
2019,03,17,05,32,1.80
2019,03,17,05,33,1.80
2019,03,17,05,34,1.80
2019,03,17,05,35,1.80
2019,03,17,05,36,1.80
2019,03,17,05,37,1.80
2019,03,17,05,38,1.80
2019,03,17,05,39,1.70
2019,03,17,05,40,1.70
2019,03,17,05,41,1.70
2019,03,17,05,42,1.70
2019,03,17,05,43,1.70
2019,03,17,05,44,1.60
2019,03,17,05,45,1.60
2019,03,17,05,46,1.60
2019,03,17,05,47,1.60
2019,03,17,05,48,1.60
2019,03,17,05,49,1.60
2019,03,17,05,50,1.60
2019,03,17,05,51,1.60
2019,03,17,05,52,1.60
2019,03,17,05,53,1.60
2019,03,17,05,54,1.60
2019,03,17,05,55,1.70
2019,03,17,05,56,1.70
2019,03,17,05,57,1.70
2019,03,17,05,58,1.70
2019,03,17,05,59,1.70
2019,03,17,06,00,1.60
2019,03,17,06,01,1.60
2019,03,17,06,02,1.60
2019,03,17,06,03,1.60
2019,03,17,06,04,1.60
2019,03,17,06,05,1.60
2019,03,17,06,06,1.60
2019,03,17,06,07,1.60
2019,03,17,06,08,1.50
2019,03,17,06,09,1.50
2019,03,17,06,10,1.50
2019,03,17,06,11,1.50
2019,03,17,06,12,1.40
2019,03,17,06,13,1.40
2019,03,17,06,14,1.40
2019,03,17,06,15,1.40
2019,03,17,06,16,1.40
2019,03,17,06,17,1.30
2019,03,17,06,18,1.30
2019,03,17,06,19,1.30
2019,03,17,06,20,1.40
2019,03,17,06,21,1.40
2019,03,17,06,22,1.50
2019,03,17,06,23,1.50
2019,03,17,06,24,1.50
2019,03,17,06,25,1.50
2019,03,17,06,26,1.50
2019,03,17,06,27,1.50
2019,03,17,06,28,1.50
2019,03,17,06,29,1.50
2019,03,17,06,30,1.50
2019,03,17,06,31,1.50
2019,03,17,06,32,1.50
2019,03,17,06,33,1.60
2019,03,17,06,34,1.60
2019,03,17,06,35,1.60
2019,03,17,06,36,1.60
2019,03,17,06,37,1.70
2019,03,17,06,38,1.70
2019,03,17,06,39,1.70
2019,03,17,06,40,1.70
2019,03,17,06,41,1.70
2019,03,17,06,42,1.70
2019,03,17,06,43,1.70
2019,03,17,06,44,1.60
2019,03,17,06,45,1.60
2019,03,17,06,46,1.60
2019,03,17,06,47,1.60
2019,03,17,06,48,1.60
2019,03,17,06,49,1.60
2019,03,17,06,50,1.60
2019,03,17,06,51,1.60
2019,03,17,06,52,1.50
2019,03,17,06,53,1.50
2019,03,17,06,54,1.50
2019,03,17,06,55,1.50
2019,03,17,06,56,1.50
2019,03,17,06,57,1.50
2019,03,17,06,58,1.50
2019,03,17,06,59,1.50
2019,03,17,07,00,1.50
2019,03,17,07,01,1.50
2019,03,17,07,02,1.50
2019,03,17,07,03,1.50
2019,03,17,07,04,1.50
2019,03,17,07,05,1.50
2019,03,17,07,06,1.50
2019,03,17,07,07,1.40
2019,03,17,07,08,1.40
2019,03,17,07,09,1.40
2019,03,17,07,10,1.40
2019,03,17,07,11,1.40
2019,03,17,07,12,1.40
2019,03,17,07,13,1.40
2019,03,17,07,14,1.40
2019,03,17,07,15,1.40
2019,03,17,07,16,1.40
2019,03,17,07,17,1.40
2019,03,17,07,18,1.50
2019,03,17,07,19,1.50
2019,03,17,07,20,1.50
2019,03,17,07,21,1.60
2019,03,17,07,22,1.60
2019,03,17,07,23,1.70
2019,03,17,07,24,1.70
2019,03,17,07,25,1.70
2019,03,17,07,26,1.70
2019,03,17,07,27,1.70
2019,03,17,07,28,1.70
2019,03,17,07,29,1.70
2019,03,17,07,30,1.70
2019,03,17,07,31,1.70
2019,03,17,07,32,1.70
2019,03,17,07,33,1.70
2019,03,17,07,34,1.70
2019,03,17,07,35,1.70
2019,03,17,07,36,1.70
2019,03,17,07,37,1.70
2019,03,17,07,38,1.70
2019,03,17,07,39,1.80
2019,03,17,07,40,1.80
2019,03,17,07,41,1.80
2019,03,17,07,42,1.80
2019,03,17,07,43,1.80
2019,03,17,07,44,1.90
2019,03,17,07,45,1.90
2019,03,17,07,46,1.90
2019,03,17,07,47,1.90
2019,03,17,07,48,1.90
2019,03,17,07,49,1.90
2019,03,17,07,50,1.90
2019,03,17,07,51,2.00
2019,03,17,07,52,2.00
2019,03,17,07,53,2.00
2019,03,17,07,54,2.00
2019,03,17,07,55,2.00
2019,03,17,07,56,2.00
2019,03,17,07,57,2.00
2019,03,17,07,58,2.10
2019,03,17,07,59,2.10
2019,03,17,08,00,2.10
2019,03,17,08,01,2.20
2019,03,17,08,02,2.20
2019,03,17,08,03,2.20
2019,03,17,08,04,2.20
2019,03,17,08,05,2.20
2019,03,17,08,06,2.20
2019,03,17,08,07,2.20
2019,03,17,08,08,2.20
2019,03,17,08,09,2.30
2019,03,17,08,10,2.30
2019,03,17,08,11,2.30
2019,03,17,08,12,2.30
2019,03,17,08,13,2.30
2019,03,17,08,14,2.30
2019,03,17,08,15,2.40
2019,03,17,08,16,2.40
2019,03,17,08,17,2.50
2019,03,17,08,18,2.50
2019,03,17,08,19,2.50
2019,03,17,08,20,2.50
2019,03,17,08,21,2.60
2019,03,17,08,22,2.70
2019,03,17,08,23,2.70
2019,03,17,08,24,2.70
2019,03,17,08,25,2.80
2019,03,17,08,26,2.80
2019,03,17,08,27,2.90
2019,03,17,08,28,3.00
2019,03,17,08,29,3.10
2019,03,17,08,30,3.20
2019,03,17,08,31,3.30
2019,03,17,08,32,3.30
2019,03,17,08,33,3.40
2019,03,17,08,34,3.40
2019,03,17,08,35,3.50
2019,03,17,08,36,3.50
2019,03,17,08,37,3.50
2019,03,17,08,38,3.60
2019,03,17,08,39,3.60
2019,03,17,08,40,3.70
2019,03,17,08,41,3.70
2019,03,17,08,42,3.80
2019,03,17,08,43,3.80
2019,03,17,08,44,3.90
2019,03,17,08,45,4.00
2019,03,17,08,46,4.00
2019,03,17,08,47,4.10
2019,03,17,08,48,4.10
2019,03,17,08,49,4.20
2019,03,17,08,50,4.20
2019,03,17,08,51,4.30
2019,03,17,08,52,4.40
2019,03,17,08,53,4.50
2019,03,17,08,54,4.50
2019,03,17,08,55,4.60
2019,03,17,08,56,4.70
2019,03,17,08,57,4.80
2019,03,17,08,58,4.80
2019,03,17,08,59,4.90
2019,03,17,09,00,4.90
2019,03,17,09,01,5.00
2019,03,17,09,02,5.10
2019,03,17,09,03,5.10
2019,03,17,09,04,5.20
2019,03,17,09,05,5.30
2019,03,17,09,06,5.30
2019,03,17,09,07,5.40
2019,03,17,09,08,5.50
2019,03,17,09,09,5.60
2019,03,17,09,10,5.70
2019,03,17,09,11,5.70
2019,03,17,09,12,5.70
2019,03,17,09,13,5.80
2019,03,17,09,14,5.90
2019,03,17,09,15,6.00
2019,03,17,09,16,6.10
2019,03,17,09,17,6.20
2019,03,17,09,18,6.30
2019,03,17,09,19,6.40
2019,03,17,09,20,6.60
2019,03,17,09,21,6.70
2019,03,17,09,22,6.80
2019,03,17,09,23,6.80
2019,03,17,09,24,6.90
2019,03,17,09,25,7.00
2019,03,17,09,26,7.10
2019,03,17,09,27,7.20
2019,03,17,09,28,7.30
2019,03,17,09,29,7.50
2019,03,17,09,30,7.60
2019,03,17,09,31,7.70
2019,03,17,09,32,7.80
2019,03,17,09,33,8.00
2019,03,17,09,34,8.10
2019,03,17,09,35,8.30
2019,03,17,09,36,8.40
2019,03,17,09,37,8.50
2019,03,17,09,38,8.70
2019,03,17,09,39,8.70
2019,03,17,09,40,8.80
2019,03,17,09,41,8.90
2019,03,17,09,42,9.00
2019,03,17,09,43,9.00
2019,03,17,09,44,9.20
2019,03,17,09,45,9.20
2019,03,17,09,46,9.30
2019,03,17,09,47,9.40
2019,03,17,09,48,9.50
2019,03,17,09,49,9.60
2019,03,17,09,50,9.60
2019,03,17,09,51,9.70
2019,03,17,09,52,9.80
2019,03,17,09,53,9.80
2019,03,17,09,54,9.90
2019,03,17,09,55,10.00
2019,03,17,09,56,10.10
2019,03,17,09,57,10.10
2019,03,17,09,58,10.20
2019,03,17,09,59,10.20
2019,03,17,10,00,10.30
2019,03,17,10,01,10.40
2019,03,17,10,02,10.50
2019,03,17,10,03,10.60
2019,03,17,10,04,10.70
2019,03,17,10,05,10.70
2019,03,17,10,06,10.80
2019,03,17,10,07,10.80
2019,03,17,10,08,10.90
2019,03,17,10,09,11.00
2019,03,17,10,10,11.10
2019,03,17,10,11,11.20
2019,03,17,10,12,11.30
2019,03,17,10,13,11.40
2019,03,17,10,14,11.40
2019,03,17,10,15,11.50
2019,03,17,10,16,11.60
2019,03,17,10,17,11.70
2019,03,17,10,18,11.80
2019,03,17,10,19,11.80
2019,03,17,10,20,11.90
2019,03,17,10,21,12.00
2019,03,17,10,22,12.00
2019,03,17,10,23,12.10
2019,03,17,10,24,12.10
2019,03,17,10,25,12.10
2019,03,17,10,26,12.20
2019,03,17,10,27,12.20
2019,03,17,10,28,12.30
2019,03,17,10,29,12.30
2019,03,17,10,30,12.40
2019,03,17,10,31,12.40
2019,03,17,10,32,12.40
2019,03,17,10,33,12.40
2019,03,17,10,34,12.40
2019,03,17,10,35,12.50
2019,03,17,10,36,12.60
2019,03,17,10,37,12.60
2019,03,17,10,38,12.80
2019,03,17,10,39,12.80
2019,03,17,10,40,12.90
2019,03,17,10,41,13.00
2019,03,17,10,42,13.10
2019,03,17,10,43,13.10
2019,03,17,10,44,13.20
2019,03,17,10,45,13.20
2019,03,17,10,46,13.20
2019,03,17,10,47,13.20
2019,03,17,10,48,13.30
2019,03,17,10,49,13.30
2019,03,17,10,50,13.40
2019,03,17,10,51,13.50
2019,03,17,10,52,13.50
2019,03,17,10,53,13.50
2019,03,17,10,54,13.50
2019,03,17,10,55,13.60
2019,03,17,10,56,13.60
2019,03,17,10,57,13.60
2019,03,17,10,58,13.60
2019,03,17,10,59,13.60
2019,03,17,11,00,13.50
2019,03,17,11,01,13.50
2019,03,17,11,02,13.50
2019,03,17,11,03,13.40
2019,03,17,11,04,13.30
2019,03,17,11,05,13.30
2019,03,17,11,06,13.30
2019,03,17,11,07,13.30
2019,03,17,11,08,13.30
2019,03,17,11,09,13.30
2019,03,17,11,10,13.40
2019,03,17,11,11,13.40
2019,03,17,11,12,13.30
2019,03,17,11,13,13.30
2019,03,17,11,14,13.30
2019,03,17,11,15,13.20
2019,03,17,11,16,13.10
2019,03,17,11,17,13.10
2019,03,17,11,18,13.20
2019,03,17,11,19,13.10
2019,03,17,11,20,13.10
2019,03,17,11,21,13.10
2019,03,17,11,22,13.10
2019,03,17,11,23,13.10
2019,03,17,11,24,13.20
2019,03,17,11,25,13.20
2019,03,17,11,26,13.10
2019,03,17,11,27,13.10
2019,03,17,11,28,13.10
2019,03,17,11,29,13.20
2019,03,17,11,30,13.20
2019,03,17,11,31,13.30
2019,03,17,11,32,13.30
2019,03,17,11,33,13.40
2019,03,17,11,34,13.50
2019,03,17,11,35,13.50
2019,03,17,11,36,13.50
2019,03,17,11,37,13.50
2019,03,17,11,38,13.50
2019,03,17,11,39,13.50
2019,03,17,11,40,13.50
2019,03,17,11,41,13.50
2019,03,17,11,42,13.50
2019,03,17,11,43,13.50
2019,03,17,11,44,13.60
2019,03,17,11,45,13.60
2019,03,17,11,46,13.70
2019,03,17,11,47,13.70
2019,03,17,11,48,13.70
2019,03,17,11,49,13.70
2019,03,17,11,50,13.70
2019,03,17,11,51,13.70
2019,03,17,11,52,13.70
2019,03,17,11,53,13.70
2019,03,17,11,54,13.80
2019,03,17,11,55,13.80
2019,03,17,11,56,13.90
2019,03,17,11,57,13.90
2019,03,17,11,58,13.90
2019,03,17,11,59,13.90
2019,03,17,12,00,14.00
2019,03,17,12,01,14.00
2019,03,17,12,02,13.90
2019,03,17,12,03,14.00
2019,03,17,12,04,14.00
2019,03,17,12,05,14.10
2019,03,17,12,06,14.20
2019,03,17,12,07,14.20
2019,03,17,12,08,14.20
2019,03,17,12,09,14.20
2019,03,17,12,10,14.20
2019,03,17,12,11,14.20
2019,03,17,12,12,14.20
2019,03,17,12,13,14.20
2019,03,17,12,14,14.30
2019,03,17,12,15,14.30
2019,03,17,12,16,14.30
2019,03,17,12,17,14.30
2019,03,17,12,18,14.40
2019,03,17,12,19,14.40
2019,03,17,12,20,14.50
2019,03,17,12,21,14.50
2019,03,17,12,22,14.50
2019,03,17,12,23,14.60
2019,03,17,12,24,14.60
2019,03,17,12,25,14.70
2019,03,17,12,26,14.70
2019,03,17,12,27,14.70
2019,03,17,12,28,14.70
2019,03,17,12,29,14.70
2019,03,17,12,30,14.70
2019,03,17,12,31,14.70
2019,03,17,12,32,14.70
2019,03,17,12,33,14.70
2019,03,17,12,34,14.70
2019,03,17,12,35,14.70
2019,03,17,12,36,14.80
2019,03,17,12,37,14.80
2019,03,17,12,38,14.90
2019,03,17,12,39,14.90
2019,03,17,12,40,14.90
2019,03,17,12,41,15.00
2019,03,17,12,42,15.00
2019,03,17,12,43,15.00
2019,03,17,12,44,15.10
2019,03,17,12,45,15.10
2019,03,17,12,46,15.20
2019,03,17,12,47,15.20
2019,03,17,12,48,15.20
2019,03,17,12,49,15.20
2019,03,17,12,50,15.20
2019,03,17,12,51,15.20
2019,03,17,12,52,15.20
2019,03,17,12,53,15.20
2019,03,17,12,54,15.30
2019,03,17,12,55,15.40
2019,03,17,12,56,15.40
2019,03,17,12,57,15.50
2019,03,17,12,58,15.50
2019,03,17,12,59,15.50
2019,03,17,13,00,15.50
2019,03,17,13,01,15.60
2019,03,17,13,02,15.60
2019,03,17,13,03,15.60
2019,03,17,13,04,15.50
2019,03,17,13,05,15.50
2019,03,17,13,06,15.50
2019,03,17,13,07,15.40
2019,03,17,13,08,15.30
2019,03,17,13,09,15.40
2019,03,17,13,10,15.40
2019,03,17,13,11,15.50
2019,03,17,13,12,15.60
2019,03,17,13,13,15.60
2019,03,17,13,14,15.70
2019,03,17,13,15,15.70
2019,03,17,13,16,15.80
2019,03,17,13,17,15.80
2019,03,17,13,18,15.80
2019,03,17,13,19,15.80
2019,03,17,13,20,15.80
2019,03,17,13,21,15.80
2019,03,17,13,22,15.80
2019,03,17,13,23,15.80
2019,03,17,13,24,15.80
2019,03,17,13,25,15.80
2019,03,17,13,26,15.80
2019,03,17,13,27,15.90
2019,03,17,13,28,15.90
2019,03,17,13,29,15.90
2019,03,17,13,30,15.90
2019,03,17,13,31,16.00
2019,03,17,13,32,16.10
2019,03,17,13,33,16.10
2019,03,17,13,34,16.10
2019,03,17,13,35,16.10
2019,03,17,13,36,16.10
2019,03,17,13,37,16.10
2019,03,17,13,38,16.10
2019,03,17,13,39,16.10
2019,03,17,13,40,16.10
2019,03,17,13,41,16.20
2019,03,17,13,42,16.20
2019,03,17,13,43,16.30
2019,03,17,13,44,16.40
2019,03,17,13,45,16.40
2019,03,17,13,46,16.40
2019,03,17,13,47,16.40
2019,03,17,13,48,16.40
2019,03,17,13,49,16.40
2019,03,17,13,50,16.40
2019,03,17,13,51,16.50
2019,03,17,13,52,16.60
2019,03,17,13,53,16.60
2019,03,17,13,54,16.60
2019,03,17,13,55,16.70
2019,03,17,13,56,16.70
2019,03,17,13,57,16.70
2019,03,17,13,58,16.70
2019,03,17,13,59,16.70
2019,03,17,14,00,16.70
2019,03,17,14,01,16.70
2019,03,17,14,02,16.70
2019,03,17,14,03,16.70
2019,03,17,14,04,16.70
2019,03,17,14,05,16.70
2019,03,17,14,06,16.80
2019,03,17,14,07,16.80
2019,03,17,14,08,16.90
2019,03,17,14,09,16.90
2019,03,17,14,10,17.00
2019,03,17,14,11,17.00
2019,03,17,14,12,17.10
2019,03,17,14,13,17.10
2019,03,17,14,14,17.10
2019,03,17,14,15,17.20
2019,03,17,14,16,17.20
2019,03,17,14,17,17.20
2019,03,17,14,18,17.30
2019,03,17,14,19,17.30
2019,03,17,14,20,17.30
2019,03,17,14,21,17.30
2019,03,17,14,22,17.20
2019,03,17,14,23,17.30
2019,03,17,14,24,17.30
2019,03,17,14,25,17.30
2019,03,17,14,26,17.30
2019,03,17,14,27,17.30
2019,03,17,14,28,17.30
2019,03,17,14,29,17.30
2019,03,17,14,30,17.30
2019,03,17,14,31,17.30
2019,03,17,14,32,17.30
2019,03,17,14,33,17.40
2019,03,17,14,34,17.50
2019,03,17,14,35,17.50
2019,03,17,14,36,17.50
2019,03,17,14,37,17.50
2019,03,17,14,38,17.50
2019,03,17,14,39,17.50
2019,03,17,14,40,17.40
2019,03,17,14,41,17.40
2019,03,17,14,42,17.30
2019,03,17,14,43,17.30
2019,03,17,14,44,17.30
2019,03,17,14,45,17.20
2019,03,17,14,46,17.20
2019,03,17,14,47,17.10
2019,03,17,14,48,17.10
2019,03,17,14,49,17.00
2019,03,17,14,50,17.10
2019,03,17,14,51,17.10
2019,03,17,14,52,17.10
2019,03,17,14,53,17.00
2019,03,17,14,54,17.00
2019,03,17,14,55,16.90
2019,03,17,14,56,16.90
2019,03,17,14,57,16.90
2019,03,17,14,58,17.00
2019,03,17,14,59,17.00
2019,03,17,15,00,17.10
2019,03,17,15,01,17.20
2019,03,17,15,02,17.30
2019,03,17,15,03,17.30
2019,03,17,15,04,17.30
2019,03,17,15,05,17.30
2019,03,17,15,06,17.30
2019,03,17,15,07,17.30
2019,03,17,15,08,17.30
2019,03,17,15,09,17.30
2019,03,17,15,10,17.30
2019,03,17,15,11,17.30
2019,03,17,15,12,17.30
2019,03,17,15,13,17.30
2019,03,17,15,14,17.30
2019,03,17,15,15,17.30
2019,03,17,15,16,17.30
2019,03,17,15,17,17.30
2019,03,17,15,18,17.30
2019,03,17,15,19,17.40
2019,03,17,15,20,17.40
2019,03,17,15,21,17.50
2019,03,17,15,22,17.60
2019,03,17,15,23,17.60
2019,03,17,15,24,17.60
2019,03,17,15,25,17.60
2019,03,17,15,26,17.70
2019,03,17,15,27,17.70
2019,03,17,15,28,17.70
2019,03,17,15,29,17.70
2019,03,17,15,30,17.70
2019,03,17,15,31,17.70
2019,03,17,15,32,17.70
2019,03,17,15,33,17.80
2019,03,17,15,34,17.80
2019,03,17,15,35,17.80
2019,03,17,15,36,17.80
2019,03,17,15,37,17.70
2019,03,17,15,38,17.70
2019,03,17,15,39,17.70
2019,03,17,15,40,17.70
2019,03,17,15,41,17.70
2019,03,17,15,42,17.70
2019,03,17,15,43,17.70
2019,03,17,15,44,17.80
2019,03,17,15,45,17.80
2019,03,17,15,46,17.80
2019,03,17,15,47,17.80
2019,03,17,15,48,17.80
2019,03,17,15,49,17.80
2019,03,17,15,50,17.80
2019,03,17,15,51,17.70
2019,03,17,15,52,17.70
2019,03,17,15,53,17.70
2019,03,17,15,54,17.80
2019,03,17,15,55,17.80
2019,03,17,15,56,17.70
2019,03,17,15,57,17.60
2019,03,17,15,58,17.40
2019,03,17,15,59,17.30
2019,03,17,16,00,17.20
2019,03,17,16,01,17.20
2019,03,17,16,02,17.20
2019,03,17,16,03,17.10
2019,03,17,16,04,17.10
2019,03,17,16,05,17.10
2019,03,17,16,06,17.10
2019,03,17,16,07,17.10
2019,03,17,16,08,17.10
2019,03,17,16,09,17.10
2019,03,17,16,10,16.90
2019,03,17,16,11,16.80
2019,03,17,16,12,16.70
2019,03,17,16,13,16.60
2019,03,17,16,14,16.50
2019,03,17,16,15,16.40
2019,03,17,16,16,16.40
2019,03,17,16,17,16.40
2019,03,17,16,18,16.40
2019,03,17,16,19,16.40
2019,03,17,16,20,16.40
2019,03,17,16,21,16.30
2019,03,17,16,22,16.30
2019,03,17,16,23,16.20
2019,03,17,16,24,16.20
2019,03,17,16,25,16.10
2019,03,17,16,26,16.10
2019,03,17,16,27,16.10
2019,03,17,16,28,16.10
2019,03,17,16,29,16.10
2019,03,17,16,30,16.10
2019,03,17,16,31,16.10
2019,03,17,16,32,16.10
2019,03,17,16,33,16.10
2019,03,17,16,34,16.00
2019,03,17,16,35,15.90
2019,03,17,16,36,15.80
2019,03,17,16,37,15.80
2019,03,17,16,38,15.80
2019,03,17,16,39,15.80
2019,03,17,16,40,15.70
2019,03,17,16,41,15.70
2019,03,17,16,42,15.70
2019,03,17,16,43,15.70
2019,03,17,16,44,15.70
2019,03,17,16,45,15.70
2019,03,17,16,46,15.70
2019,03,17,16,47,15.70
2019,03,17,16,48,15.70
2019,03,17,16,49,15.70
2019,03,17,16,50,15.70
2019,03,17,16,51,15.80
2019,03,17,16,52,15.80
2019,03,17,16,53,15.80
2019,03,17,16,54,15.80
2019,03,17,16,55,15.90
2019,03,17,16,56,16.00
2019,03,17,16,57,16.10
2019,03,17,16,58,16.20
2019,03,17,16,59,16.20
2019,03,17,17,00,16.20
2019,03,17,17,01,16.20
2019,03,17,17,02,16.30
2019,03,17,17,03,16.30
2019,03,17,17,04,16.30
2019,03,17,17,05,16.30
2019,03,17,17,06,16.30
2019,03,17,17,07,16.30
2019,03,17,17,08,16.30
2019,03,17,17,09,16.30
2019,03,17,17,10,16.20
2019,03,17,17,11,16.10
2019,03,17,17,12,16.00
2019,03,17,17,13,15.90
2019,03,17,17,14,15.90
2019,03,17,17,15,15.80
2019,03,17,17,16,15.80
2019,03,17,17,17,15.80
2019,03,17,17,18,15.80
2019,03,17,17,19,15.80
2019,03,17,17,20,15.70
2019,03,17,17,21,15.80
2019,03,17,17,22,15.80
2019,03,17,17,23,15.80
2019,03,17,17,24,15.80
2019,03,17,17,25,15.90
2019,03,17,17,26,16.00
2019,03,17,17,27,16.10
2019,03,17,17,28,16.10
2019,03,17,17,29,16.10
2019,03,17,17,30,16.10
2019,03,17,17,31,16.10
2019,03,17,17,32,16.10
2019,03,17,17,33,16.10
2019,03,17,17,34,16.10
2019,03,17,17,35,15.90
2019,03,17,17,36,15.90
2019,03,17,17,37,15.80
2019,03,17,17,38,15.80
2019,03,17,17,39,15.80
2019,03,17,17,40,15.70
2019,03,17,17,41,15.60
2019,03,17,17,42,15.60
2019,03,17,17,43,15.50
2019,03,17,17,44,15.40
2019,03,17,17,45,15.40